PST,Max TemperatureF,Mean TemperatureF,Min TemperatureF,Max Dew PointF,MeanDew PointF,Min DewpointF,Max Humidity, Mean Humidity, Min Humidity, Max Sea Level PressureIn, Mean Sea Level PressureIn, Min Sea Level PressureIn, Max VisibilityMiles, Mean VisibilityMiles, Min VisibilityMiles, Max Wind SpeedMPH, Mean Wind SpeedMPH, Max Gust SpeedMPH,PrecipitationIn, CloudCover, Events, WindDirDegrees
2013-11-1,54,38,22,40,35,31,66,56,41,30.24,30.13,29.91,10,10,10,15,5,,0.00,3,,83
2013-11-2,50,43,36,43,39,30,93,76,38,29.85,29.65,29.52,10,10,5,33,7,47,0.39,5,Rain,62
2013-11-3,43,35,27,34,28,19,92,65,29,30.04,29.94,29.80,10,10,9,12,4,,0.04,2,Snow,318
2013-11-4,36,29,22,25,21,14,69,51,27,30.17,30.13,30.06,10,10,9,10,5,,T,2,Snow,346
2013-11-5,34,30,25,32,29,24,89,74,57,30.25,30.16,30.13,10,10,10,8,2,,0.20,6,Rain,109
2013-11-6,36,34,32,34,31,27,93,80,70,30.40,30.34,30.27,10,9,6,9,3,,0.00,7,Rain,139
2013-11-7,45,39,32,37,35,34,100,90,79,30.24,29.93,29.77,10,8,2,7,2,,0.69,8,Rain,293
2013-11-8,48,40,31,38,34,31,93,72,43,30.15,30.05,29.93,10,10,9,12,3,,0.00,1,,306
2013-11-9,43,36,28,37,34,30,93,85,67,30.23,30.18,30.14,10,10,7,7,3,,0.01,5,Rain,285
2013-11-10,43,40,37,40,37,35,93,86,81,30.30,30.21,30.16,10,10,10,7,4,,0.00,8,,293
2013-11-11,52,44,36,41,39,39,89,82,71,30.38,30.33,30.27,10,10,10,8,5,,0.00,8,,292
2013-11-12,45,38,31,41,40,39,89,82,76,30.36,30.29,30.24,10,10,8,14,5,,T,8,Rain,119
2013-11-13,43,37,31,41,38,34,86,71,51,30.39,30.33,30.24,10,9,7,17,2,,T,3,,275
2013-11-14,43,36,29,38,35,30,86,74,61,30.22,30.06,29.95,10,10,10,8,3,,0.00,0,,198
2013-11-15,37,35,33,34,30,26,86,64,46,29.92,29.61,29.21,10,10,10,12,5,20,0.12,2,,83
2013-11-16,45,38,30,36,27,23,86,60,38,29.67,29.44,29.24,10,10,6,24,14,32,0.01,1,Rain,303
2013-11-17,45,36,27,33,29,24,89,75,58,29.87,29.80,29.69,10,10,10,7,2,,T,5,Rain,141
2013-11-18,43,41,39,40,36,30,92,84,71,29.85,29.76,29.59,10,10,7,8,1,,0.14,3,Rain,305
2013-11-19,52,43,34,42,31,21,93,62,33,29.91,29.65,29.51,10,10,5,21,7,26,T,2,,324
2013-11-20,36,28,19,21,13,8,61,49,37,30.52,30.29,29.94,10,10,10,10,5,,0.00,0,,216
2013-11-21,34,22,9,16,12,9,72,58,42,30.75,30.68,30.55,10,10,10,6,4,,0.00,0,,335
2013-11-22,35,26,17,18,15,12,84,66,47,30.85,30.78,30.72,10,10,10,7,1,8,0.00,0,,324
2013-11-23,36,26,15,19,16,13,81,65,48,30.70,30.56,30.40,10,10,10,6,3,,0.00,0,,310
2013-11-24,37,26,14,21,17,14,82,63,43,30.44,30.39,30.35,10,10,10,8,1,,0.00,0,,341
2013-11-25,37,27,17,23,21,17,78,66,53,30.51,30.46,30.43,10,10,10,4,1,,0.00,0,,332
2013-11-26,38,29,19,26,24,22,85,75,62,30.43,30.33,30.25,10,10,10,4,0,,0.00,0,,266
2013-11-27,36,28,19,28,26,23,89,80,68,30.27,30.22,30.17,10,10,9,6,1,,0.00,2,,306
2013-11-28,40,32,23,29,26,23,92,76,59,30.27,30.22,30.19,10,9,5,9,2,10,0.00,2,,56
2013-11-29,30,24,17,29,26,25,93,88,79,30.34,30.27,30.23,8,4,0,8,2,,0.06,8,Fog,105
2013-11-30,32,28,24,30,29,27,89,85,80,30.35,30.29,30.17,6,5,3,10,2,,0.01,8,,117